Time,TemperatureF,DewpointF,PressureIn,WindDirection,WindDirectionDegrees,WindSpeedMPH,WindSpeedGustMPH,Humidity,HourlyPrecipIn,Conditions,Clouds,dailyrainin,SoftwareType,DateUTC
2013-02-18 00:00:00,38.9,27.0,30.24,North,0,0.0,5.0,62,0.00,,,0.00,Wunderground v.1.15,2013-02-18 05:00:00,
2013-02-18 00:01:00,38.9,27.0,30.24,North,352,0.0,5.0,62,0.00,,,0.00,Wunderground v.1.15,2013-02-18 05:01:00,
2013-02-18 00:06:00,38.9,27.4,30.24,North,356,0.0,5.0,63,0.00,,,0.00,Wunderground v.1.15,2013-02-18 05:06:00,
2013-02-18 00:10:00,38.8,27.3,30.24,North,352,0.0,5.0,63,0.00,,,0.00,Wunderground v.1.15,2013-02-18 05:10:00,
2013-02-18 00:15:00,38.8,27.3,30.24,North,0,0.0,5.0,63,0.00,,,0.00,Wunderground v.1.15,2013-02-18 05:15:00,
2013-02-18 00:18:00,38.6,27.1,30.24,North,0,0.0,5.0,63,0.00,,,0.00,Wunderground v.1.15,2013-02-18 05:18:00,
2013-02-18 00:23:00,38.5,27.0,30.24,North,359,0.0,5.0,63,0.00,,,0.00,Wunderground v.1.15,2013-02-18 05:23:00,
2013-02-18 00:29:00,38.3,27.2,30.24,North,0,0.0,5.0,64,0.00,,,0.00,Wunderground v.1.15,2013-02-18 05:29:00,
2013-02-18 00:34:00,38.2,27.1,30.25,North,353,0.0,5.0,64,0.00,,,0.00,Wunderground v.1.15,2013-02-18 05:34:00,
2013-02-18 00:39:00,38.0,26.9,30.25,North,0,0.0,5.0,64,0.00,,,0.00,Wunderground v.1.15,2013-02-18 05:39:00,
2013-02-18 00:44:00,37.9,26.8,30.25,North,352,0.0,5.0,64,0.00,,,0.00,Wunderground v.1.15,2013-02-18 05:44:00,
2013-02-18 00:49:00,37.8,27.1,30.25,North,359,0.0,5.0,65,0.00,,,0.00,Wunderground v.1.15,2013-02-18 05:49:00,
2013-02-18 00:55:00,37.6,26.9,30.25,North,0,0.0,5.0,65,0.00,,,0.00,Wunderground v.1.15,2013-02-18 05:55:00,
2013-02-18 01:00:00,37.5,26.8,30.25,North,0,0.0,5.0,65,0.00,,,0.00,Wunderground v.1.15,2013-02-18 06:00:00,
2013-02-18 01:05:00,37.5,27.2,30.24,North,0,0.0,5.0,66,0.00,,,0.00,Wunderground v.1.15,2013-02-18 06:05:00,
2013-02-18 01:11:00,37.3,27.0,30.24,North,0,0.0,5.0,66,0.00,,,0.00,Wunderground v.1.15,2013-02-18 06:11:00,
2013-02-18 01:16:00,37.3,27.0,30.25,North,352,0.0,5.0,66,0.00,,,0.00,Wunderground v.1.15,2013-02-18 06:16:00,
2013-02-18 01:21:00,37.3,27.0,30.25,North,0,0.0,5.0,66,0.00,,,0.00,Wunderground v.1.15,2013-02-18 06:21:00,
2013-02-18 01:27:00,37.3,27.3,30.25,North,353,0.0,5.0,67,0.00,,,0.00,Wunderground v.1.15,2013-02-18 06:27:00,
2013-02-18 01:33:00,37.3,27.3,30.25,North,353,0.0,5.0,67,0.00,,,0.00,Wunderground v.1.15,2013-02-18 06:33:00,
2013-02-18 01:38:00,37.2,27.2,30.25,North,357,0.0,5.0,67,0.00,,,0.00,Wunderground v.1.15,2013-02-18 06:38:00,
2013-02-18 01:43:00,37.2,27.2,30.25,North,354,0.0,5.0,67,0.00,,,0.00,Wunderground v.1.15,2013-02-18 06:43:00,
2013-02-18 01:49:00,37.2,27.2,30.25,North,359,0.0,5.0,67,0.00,,,0.00,Wunderground v.1.15,2013-02-18 06:49:00,
2013-02-18 01:54:00,37.2,27.2,30.25,North,354,0.0,5.0,67,0.00,,,0.00,Wunderground v.1.15,2013-02-18 06:54:00,
2013-02-18 01:59:00,37.3,27.3,30.25,North,0,0.0,0.0,67,0.00,,,0.00,Wunderground v.1.15,2013-02-18 06:59:00,
2013-02-18 02:05:00,37.8,28.2,30.24,NE,45,0.0,0.0,68,0.00,,,0.00,Wunderground v.1.15,2013-02-18 07:05:00,
2013-02-18 02:11:00,38.0,28.4,30.24,NE,45,0.0,0.0,68,0.00,,,0.00,Wunderground v.1.15,2013-02-18 07:11:00,
2013-02-18 02:16:00,38.3,28.3,30.24,North,353,0.0,0.0,67,0.00,,,0.00,Wunderground v.1.15,2013-02-18 07:16:00,
2013-02-18 02:21:00,38.6,28.6,30.24,North,353,0.0,0.0,67,0.00,,,0.00,Wunderground v.1.15,2013-02-18 07:21:00,
2013-02-18 02:26:00,38.8,28.8,30.24,NNE,17,0.0,0.0,67,0.00,,,0.00,Wunderground v.1.15,2013-02-18 07:26:00,
2013-02-18 02:32:00,39.1,29.1,30.24,ESE,103,0.0,0.0,67,0.00,,,0.00,Wunderground v.1.15,2013-02-18 07:32:00,
2013-02-18 02:37:00,39.1,29.1,30.24,ESE,103,0.0,0.0,67,0.00,,,0.00,Wunderground v.1.15,2013-02-18 07:37:00,
2013-02-18 02:43:00,39.2,29.2,30.24,ESE,103,0.0,0.0,67,0.00,,,0.00,Wunderground v.1.15,2013-02-18 07:43:00,
2013-02-18 02:48:00,39.2,29.2,30.23,ESE,103,0.0,0.0,67,0.00,,,0.00,Wunderground v.1.15,2013-02-18 07:48:00,
2013-02-18 02:54:00,39.2,29.2,30.23,ESE,103,0.0,0.0,67,0.00,,,0.00,Wunderground v.1.15,2013-02-18 07:54:00,
2013-02-18 02:59:00,39.1,29.1,30.23,North,0,0.0,0.0,67,0.00,,,0.00,Wunderground v.1.15,2013-02-18 07:59:00,
2013-02-18 03:04:00,39.1,29.1,30.23,NE,56,0.0,0.0,67,0.00,,,0.00,Wunderground v.1.15,2013-02-18 08:04:00,
2013-02-18 03:10:00,39.1,29.1,30.23,ENE,66,0.0,0.0,67,0.00,,,0.00,Wunderground v.1.15,2013-02-18 08:10:00,
2013-02-18 03:15:00,39.1,29.1,30.23,NNE,17,0.0,0.0,67,0.00,,,0.00,Wunderground v.1.15,2013-02-18 08:15:00,
2013-02-18 03:20:00,39.1,29.1,30.23,ESE,109,0.0,0.0,67,0.00,,,0.00,Wunderground v.1.15,2013-02-18 08:20:00,
2013-02-18 03:26:00,39.1,29.1,30.23,East,90,0.0,0.0,67,0.00,,,0.00,Wunderground v.1.15,2013-02-18 08:26:00,
2013-02-18 03:31:00,39.1,29.1,30.23,NE,41,0.0,0.0,67,0.00,,,0.00,Wunderground v.1.15,2013-02-18 08:31:00,
2013-02-18 03:36:00,38.9,28.5,30.23,ENE,78,0.0,0.0,66,0.00,,,0.00,Wunderground v.1.15,2013-02-18 08:36:00,
2013-02-18 03:41:00,38.9,28.5,30.23,ENE,65,0.0,0.0,66,0.00,,,0.00,Wunderground v.1.15,2013-02-18 08:41:00,
2013-02-18 03:47:00,38.8,28.4,30.23,ESE,103,0.0,0.0,66,0.00,,,0.00,Wunderground v.1.15,2013-02-18 08:47:00,
2013-02-18 03:52:00,38.8,28.4,30.23,East,80,0.0,0.0,66,0.00,,,0.00,Wunderground v.1.15,2013-02-18 08:52:00,
2013-02-18 03:57:00,38.8,28.4,30.23,East,80,0.0,0.0,66,0.00,,,0.00,Wunderground v.1.15,2013-02-18 08:57:00,
2013-02-18 04:03:00,38.8,28.4,30.22,NE,48,0.0,0.0,66,0.00,,,0.00,Wunderground v.1.15,2013-02-18 09:03:00,
2013-02-18 04:08:00,38.8,28.4,30.22,East,92,0.0,0.0,66,0.00,,,0.00,Wunderground v.1.15,2013-02-18 09:08:00,
2013-02-18 04:13:00,38.6,28.2,30.22,East,92,0.0,0.0,66,0.00,,,0.00,Wunderground v.1.15,2013-02-18 09:13:00,
2013-02-18 04:19:00,38.6,28.2,30.23,NNE,21,0.0,0.0,66,0.00,,,0.00,Wunderground v.1.15,2013-02-18 09:19:00,
2013-02-18 04:25:00,38.5,28.1,30.23,NE,54,0.0,0.0,66,0.00,,,0.00,Wunderground v.1.15,2013-02-18 09:25:00,
2013-02-18 04:30:00,38.5,28.1,30.23,East,90,0.0,0.0,66,0.00,,,0.00,Wunderground v.1.15,2013-02-18 09:30:00,
2013-02-18 04:36:00,38.5,28.1,30.22,ENE,71,0.0,0.0,66,0.00,,,0.00,Wunderground v.1.15,2013-02-18 09:36:00,
2013-02-18 04:41:00,38.5,28.1,30.22,ENE,71,0.0,0.0,66,0.00,,,0.00,Wunderground v.1.15,2013-02-18 09:41:00,
2013-02-18 04:46:00,38.5,28.1,30.22,ENE,71,0.0,0.0,66,0.00,,,0.00,Wunderground v.1.15,2013-02-18 09:46:00,
2013-02-18 04:51:00,38.3,27.9,30.22,ENE,71,0.0,0.0,66,0.00,,,0.00,Wunderground v.1.15,2013-02-18 09:51:00,
2013-02-18 04:57:00,38.3,27.9,30.22,ENE,71,0.0,0.0,66,0.00,,,0.00,Wunderground v.1.15,2013-02-18 09:57:00,
2013-02-18 05:02:00,38.2,27.8,30.22,ENE,71,0.0,0.0,66,0.00,,,0.00,Wunderground v.1.15,2013-02-18 10:02:00,
2013-02-18 05:08:00,38.0,28.0,30.22,ENE,72,0.0,0.0,67,0.00,,,0.00,Wunderground v.1.15,2013-02-18 10:08:00,
2013-02-18 05:13:00,37.9,27.9,30.22,ENE,72,0.0,0.0,67,0.00,,,0.00,Wunderground v.1.15,2013-02-18 10:13:00,
2013-02-18 05:18:00,37.8,27.8,30.22,ENE,72,0.0,0.0,67,0.00,,,0.00,Wunderground v.1.15,2013-02-18 10:18:00,
2013-02-18 05:23:00,37.8,27.8,30.22,ENE,71,0.0,0.0,67,0.00,,,0.00,Wunderground v.1.15,2013-02-18 10:23:00,
2013-02-18 05:29:00,37.6,27.6,30.22,ENE,71,0.0,0.0,67,0.00,,,0.00,Wunderground v.1.15,2013-02-18 10:29:00,
2013-02-18 05:34:00,37.6,27.6,30.23,ENE,71,0.0,0.0,67,0.00,,,0.00,Wunderground v.1.15,2013-02-18 10:34:00,
2013-02-18 05:39:00,37.8,27.8,30.23,ENE,71,0.0,0.0,67,0.00,,,0.00,Wunderground v.1.15,2013-02-18 10:39:00,
2013-02-18 05:44:00,37.8,27.8,30.23,ENE,71,0.0,0.0,67,0.00,,,0.00,Wunderground v.1.15,2013-02-18 10:44:00,
2013-02-18 05:50:00,37.8,27.8,30.23,ENE,71,0.0,0.0,67,0.00,,,0.00,Wunderground v.1.15,2013-02-18 10:50:00,
2013-02-18 05:55:00,37.8,27.8,30.23,ENE,71,0.0,0.0,67,0.00,,,0.00,Wunderground v.1.15,2013-02-18 10:55:00,
2013-02-18 06:00:00,37.8,27.8,30.23,ENE,71,0.0,0.0,67,0.00,,,0.00,Wunderground v.1.15,2013-02-18 11:00:00,
2013-02-18 06:06:00,37.6,27.6,30.24,ENE,71,0.0,0.0,67,0.00,,,0.00,Wunderground v.1.15,2013-02-18 11:06:00,
2013-02-18 06:11:00,37.5,27.5,30.24,ENE,71,0.0,0.0,67,0.00,,,0.00,Wunderground v.1.15,2013-02-18 11:11:00,
2013-02-18 06:17:00,37.5,27.5,30.24,ENE,71,0.0,0.0,67,0.00,,,0.00,Wunderground v.1.15,2013-02-18 11:17:00,
2013-02-18 06:23:00,37.3,27.3,30.24,ENE,71,0.0,0.0,67,0.00,,,0.00,Wunderground v.1.15,2013-02-18 11:23:00,
2013-02-18 06:28:00,37.3,27.3,30.24,ENE,71,0.0,0.0,67,0.00,,,0.00,Wunderground v.1.15,2013-02-18 11:28:00,
2013-02-18 06:33:00,37.3,27.3,30.24,ENE,71,0.0,0.0,67,0.00,,,0.00,Wunderground v.1.15,2013-02-18 11:33:00,
2013-02-18 06:39:00,37.3,27.3,30.24,ENE,71,0.0,0.0,67,0.00,,,0.00,Wunderground v.1.15,2013-02-18 11:39:00,
2013-02-18 06:44:00,37.3,27.3,30.24,ENE,71,0.0,0.0,67,0.00,,,0.00,Wunderground v.1.15,2013-02-18 11:44:00,
2013-02-18 06:50:00,37.3,27.3,30.24,ENE,72,0.0,0.0,67,0.00,,,0.00,Wunderground v.1.15,2013-02-18 11:50:00,
2013-02-18 06:55:00,37.3,27.0,30.24,East,89,0.0,0.0,66,0.00,,,0.00,Wunderground v.1.15,2013-02-18 11:55:00,
2013-02-18 07:01:00,37.3,27.0,30.24,East,89,0.0,0.0,66,0.00,,,0.00,Wunderground v.1.15,2013-02-18 12:01:00,
2013-02-18 07:06:00,37.3,27.0,30.24,East,95,0.0,0.0,66,0.00,,,0.00,Wunderground v.1.15,2013-02-18 12:06:00,
2013-02-18 07:11:00,37.2,26.9,30.24,ENE,75,0.0,0.0,66,0.00,,,0.00,Wunderground v.1.15,2013-02-18 12:11:00,
2013-02-18 07:16:00,37.2,26.9,30.24,East,79,0.0,0.0,66,0.00,,,0.00,Wunderground v.1.15,2013-02-18 12:16:00,
2013-02-18 07:21:00,37.2,26.9,30.24,ENE,76,0.0,0.0,66,0.00,,,0.00,Wunderground v.1.15,2013-02-18 12:21:00,
2013-02-18 07:29:00,37.2,26.9,30.24,East,80,0.0,0.0,66,0.00,,,0.00,Wunderground v.1.15,2013-02-18 12:29:00,
2013-02-18 07:34:00,37.2,26.9,30.25,East,85,0.0,0.0,66,0.00,,,0.00,Wunderground v.1.15,2013-02-18 12:34:00,
2013-02-18 07:40:00,37.5,27.2,30.25,East,100,0.0,0.0,66,0.00,,,0.00,Wunderground v.1.15,2013-02-18 12:40:00,
2013-02-18 07:45:00,37.6,27.3,30.25,ESE,103,0.0,0.0,66,0.00,,,0.00,Wunderground v.1.15,2013-02-18 12:45:00,
2013-02-18 07:50:00,37.9,27.5,30.25,East,100,0.0,0.0,66,0.00,,,0.00,Wunderground v.1.15,2013-02-18 12:50:00,
2013-02-18 07:55:00,38.3,27.9,30.25,East,85,0.0,2.0,66,0.00,,,0.00,Wunderground v.1.15,2013-02-18 12:55:00,
2013-02-18 08:01:00,38.8,28.0,30.25,East,86,1.0,1.0,65,0.00,,,0.00,Wunderground v.1.15,2013-02-18 13:01:00,
2013-02-18 08:06:00,39.2,28.4,30.25,ENE,76,0.0,1.0,65,0.00,,,0.00,Wunderground v.1.15,2013-02-18 13:06:00,
2013-02-18 08:11:00,39.6,28.4,30.25,East,79,0.0,0.0,64,0.00,,,0.00,Wunderground v.1.15,2013-02-18 13:11:00,
2013-02-18 08:16:00,40.1,28.9,30.26,East,86,0.0,2.0,64,0.00,,,0.00,Wunderground v.1.15,2013-02-18 13:16:00,
2013-02-18 08:21:00,40.5,28.9,30.26,East,79,0.0,0.0,63,0.00,,,0.00,Wunderground v.1.15,2013-02-18 13:21:00,
2013-02-18 08:27:00,41.1,29.5,30.26,East,97,0.0,0.0,63,0.00,,,0.00,Wunderground v.1.15,2013-02-18 13:27:00,
2013-02-18 08:32:00,41.5,29.8,30.26,East,97,0.0,0.0,63,0.00,,,0.00,Wunderground v.1.15,2013-02-18 13:32:00,
2013-02-18 08:37:00,41.8,30.1,30.26,East,97,0.0,0.0,63,0.00,,,0.00,Wunderground v.1.15,2013-02-18 13:37:00,
2013-02-18 08:42:00,42.2,30.1,30.26,East,97,0.0,0.0,62,0.00,,,0.00,Wunderground v.1.15,2013-02-18 13:42:00,
2013-02-18 08:48:00,42.8,30.3,30.26,ENE,71,0.0,0.0,61,0.00,,,0.00,Wunderground v.1.15,2013-02-18 13:48:00,
2013-02-18 08:53:00,43.1,30.6,30.26,East,93,0.0,0.0,61,0.00,,,0.00,Wunderground v.1.15,2013-02-18 13:53:00,
2013-02-18 08:58:00,43.6,30.6,30.26,NE,35,0.0,0.0,60,0.00,,,0.00,Wunderground v.1.15,2013-02-18 13:58:00,
2013-02-18 09:03:00,44.1,30.7,30.25,East,96,0.0,2.0,59,0.00,,,0.00,Wunderground v.1.15,2013-02-18 14:03:00,
2013-02-18 09:09:00,44.6,30.7,30.25,North,0,0.0,0.0,58,0.00,,,0.00,Wunderground v.1.15,2013-02-18 14:09:00,
2013-02-18 09:14:00,45.4,31.0,30.25,East,85,0.0,5.0,57,0.00,,,0.00,Wunderground v.1.15,2013-02-18 14:14:00,
2013-02-18 09:19:00,46.2,31.4,30.26,East,95,0.0,0.0,56,0.00,,,0.00,Wunderground v.1.15,2013-02-18 14:19:00,
2013-02-18 09:25:00,47.3,31.5,30.26,NNW,336,0.0,5.0,54,0.00,,,0.00,Wunderground v.1.15,2013-02-18 14:25:00,
2013-02-18 09:30:00,48.2,31.9,30.26,NE,56,0.0,0.0,53,0.00,,,0.00,Wunderground v.1.15,2013-02-18 14:30:00,
2013-02-18 09:35:00,49.1,31.7,30.26,NE,48,0.0,11.0,51,0.00,,,0.00,Wunderground v.1.15,2013-02-18 14:35:00,
2013-02-18 09:41:00,49.8,31.4,30.26,East,100,2.0,2.0,49,0.00,,,0.00,Wunderground v.1.15,2013-02-18 14:41:00,
2013-02-18 09:46:00,50.4,31.4,30.25,NE,45,2.0,3.0,48,0.00,,,0.00,Wunderground v.1.15,2013-02-18 14:46:00,
2013-02-18 09:51:00,51.0,31.5,30.25,East,96,1.0,1.0,47,0.00,,,0.00,Wunderground v.1.15,2013-02-18 14:51:00,
2013-02-18 09:57:00,52.0,32.4,30.25,NE,55,0.0,2.0,47,0.00,,,0.00,Wunderground v.1.15,2013-02-18 14:57:00,
2013-02-18 10:02:00,52.9,32.1,30.26,East,97,1.0,6.0,45,0.00,,,0.00,Wunderground v.1.15,2013-02-18 15:02:00,
2013-02-18 10:07:00,53.5,32.1,30.26,East,90,1.0,6.0,44,0.00,,,0.00,Wunderground v.1.15,2013-02-18 15:07:00,
2013-02-18 10:13:00,54.2,32.2,30.26,ESE,117,0.0,1.0,43,0.00,,,0.00,Wunderground v.1.15,2013-02-18 15:13:00,
2013-02-18 10:18:00,54.7,32.0,30.26,ESE,103,1.0,1.0,42,0.00,,,0.00,Wunderground v.1.15,2013-02-18 15:18:00,
2013-02-18 10:23:00,55.3,32.0,30.26,ENE,78,1.0,2.0,41,0.00,,,0.00,Wunderground v.1.15,2013-02-18 15:23:00,
2013-02-18 10:28:00,55.9,32.5,30.26,East,86,1.0,5.0,41,0.00,,,0.00,Wunderground v.1.15,2013-02-18 15:28:00,
2013-02-18 10:34:00,56.2,32.2,30.26,East,79,2.0,6.0,40,0.00,,,0.00,Wunderground v.1.15,2013-02-18 15:34:00,
2013-02-18 10:40:00,56.5,31.8,30.26,ESE,102,2.0,2.0,39,0.00,,,0.00,Wunderground v.1.15,2013-02-18 15:40:00,
2013-02-18 10:46:00,57.2,32.4,30.25,ENE,76,1.0,7.0,39,0.00,,,0.00,Wunderground v.1.15,2013-02-18 15:46:00,
2013-02-18 10:51:00,57.6,32.8,30.25,East,95,1.0,1.0,39,0.00,,,0.00,Wunderground v.1.15,2013-02-18 15:51:00,
2013-02-18 10:57:00,58.4,33.5,30.25,ENE,71,0.0,1.0,39,0.00,,,0.00,Wunderground v.1.15,2013-02-18 15:57:00,
2013-02-18 11:02:00,59.2,34.2,30.26,SE,124,0.0,0.0,39,0.00,,,0.00,Wunderground v.1.15,2013-02-18 16:02:00,
2013-02-18 11:07:00,59.5,33.9,30.26,ENE,61,0.0,10.0,38,0.00,,,0.00,Wunderground v.1.15,2013-02-18 16:07:00,
2013-02-18 11:13:00,59.6,33.9,30.26,East,90,1.0,6.0,38,0.00,,,0.00,Wunderground v.1.15,2013-02-18 16:13:00,
2013-02-18 11:18:00,59.8,34.1,30.25,ESE,109,1.0,6.0,38,0.00,,,0.00,Wunderground v.1.15,2013-02-18 16:18:00,
2013-02-18 11:23:00,60.4,34.7,30.25,NNE,31,1.0,1.0,38,0.00,,,0.00,Wunderground v.1.15,2013-02-18 16:23:00,
2013-02-18 11:29:00,60.9,35.1,30.25,NE,41,0.0,5.0,38,0.00,,,0.00,Wunderground v.1.15,2013-02-18 16:29:00,
2013-02-18 11:35:00,61.2,35.4,30.25,SSE,160,1.0,7.0,38,0.00,,,0.00,Wunderground v.1.15,2013-02-18 16:35:00,
2013-02-18 11:40:00,61.5,35.6,30.25,ENE,66,1.0,5.0,38,0.00,,,0.00,Wunderground v.1.15,2013-02-18 16:40:00,
2013-02-18 11:46:00,61.6,35.7,30.24,ESE,114,1.0,5.0,38,0.00,,,0.00,Wunderground v.1.15,2013-02-18 16:46:00,
2013-02-18 11:52:00,62.0,35.4,30.24,SE,131,1.0,1.0,37,0.00,,,0.00,Wunderground v.1.15,2013-02-18 16:52:00,
2013-02-18 11:57:00,62.3,36.4,30.24,ENE,73,2.0,14.0,38,0.00,,,0.00,Wunderground v.1.15,2013-02-18 16:57:00,
2013-02-18 12:03:00,62.4,36.4,30.24,NE,49,2.0,4.0,38,0.00,,,0.00,Wunderground v.1.15,2013-02-18 17:03:00,
2013-02-18 12:09:00,62.6,36.6,30.24,ENE,62,1.0,5.0,38,0.00,,,0.00,Wunderground v.1.15,2013-02-18 17:09:00,
2013-02-18 12:14:00,62.9,36.2,30.24,ESE,104,2.0,11.0,37,0.00,,,0.00,Wunderground v.1.15,2013-02-18 17:14:00,
2013-02-18 12:19:00,63.2,36.5,30.22,NE,37,1.0,1.0,37,0.00,,,0.00,Wunderground v.1.15,2013-02-18 17:19:00,
2013-02-18 12:24:00,63.5,36.7,30.22,SE,127,1.0,5.0,37,0.00,,,0.00,Wunderground v.1.15,2013-02-18 17:24:00,
2013-02-18 12:30:00,63.9,36.4,30.22,ENE,59,1.0,2.0,36,0.00,,,0.00,Wunderground v.1.15,2013-02-18 17:30:00,
2013-02-18 12:35:00,64.2,37.4,30.21,ESE,106,2.0,6.0,37,0.00,,,0.00,Wunderground v.1.15,2013-02-18 17:35:00,
2013-02-18 12:40:00,64.5,37.6,30.21,East,97,2.0,3.0,37,0.00,,,0.00,Wunderground v.1.15,2013-02-18 17:40:00,
2013-02-18 12:45:00,64.8,37.2,30.21,SSE,154,2.0,5.0,36,0.00,,,0.00,Wunderground v.1.15,2013-02-18 17:45:00,
2013-02-18 12:51:00,65.0,37.4,30.20,ENE,73,2.0,3.0,36,0.00,,,0.00,Wunderground v.1.15,2013-02-18 17:51:00,
2013-02-18 12:57:00,65.3,37.6,30.20,East,89,1.0,3.0,36,0.00,,,0.00,Wunderground v.1.15,2013-02-18 17:57:00,
2013-02-18 13:02:00,65.5,37.8,30.19,SE,133,1.0,1.0,36,0.00,,,0.00,Wunderground v.1.15,2013-02-18 18:02:00,
2013-02-18 13:07:00,66.0,38.3,30.19,NNE,24,1.0,3.0,36,0.00,,,0.00,Wunderground v.1.15,2013-02-18 18:07:00,
2013-02-18 13:13:00,66.4,38.6,30.19,SSE,155,1.0,1.0,36,0.00,,,0.00,Wunderground v.1.15,2013-02-18 18:13:00,
2013-02-18 13:18:00,66.8,39.0,30.19,ESE,102,1.0,5.0,36,0.00,,,0.00,Wunderground v.1.15,2013-02-18 18:18:00,
2013-02-18 13:23:00,67.1,39.2,30.19,ESE,109,1.0,7.0,36,0.00,,,0.00,Wunderground v.1.15,2013-02-18 18:23:00,
2013-02-18 13:29:00,67.3,38.7,30.19,SSE,147,2.0,2.0,35,0.00,,,0.00,Wunderground v.1.15,2013-02-18 18:29:00,
2013-02-18 13:34:00,67.1,39.2,30.18,South,172,4.0,7.0,36,0.00,,,0.00,Wunderground v.1.15,2013-02-18 18:34:00,
2013-02-18 13:40:00,67.1,39.2,30.18,SE,130,3.0,4.0,36,0.00,,,0.00,Wunderground v.1.15,2013-02-18 18:40:00,
2013-02-18 13:45:00,67.1,39.2,30.18,ESE,114,3.0,8.0,36,0.00,,,0.00,Wunderground v.1.15,2013-02-18 18:45:00,
2013-02-18 13:50:00,67.3,39.4,30.17,NE,56,2.0,2.0,36,0.00,,,0.00,Wunderground v.1.15,2013-02-18 18:50:00,
2013-02-18 13:55:00,67.6,39.7,30.17,SSE,167,1.0,2.0,36,0.00,,,0.00,Wunderground v.1.15,2013-02-18 18:55:00,
2013-02-18 14:00:00,67.8,39.9,30.17,SSE,155,1.0,1.0,36,0.00,,,0.00,Wunderground v.1.15,2013-02-18 19:00:00,
2013-02-18 14:06:00,67.6,39.7,30.17,ENE,62,2.0,8.0,36,0.00,,,0.00,Wunderground v.1.15,2013-02-18 19:06:00,
2013-02-18 14:11:00,67.4,39.5,30.17,SSE,150,3.0,5.0,36,0.00,,,0.00,Wunderground v.1.15,2013-02-18 19:11:00,
2013-02-18 14:17:00,67.3,39.4,30.16,ESE,116,3.0,6.0,36,0.00,,,0.00,Wunderground v.1.15,2013-02-18 19:17:00,
2013-02-18 14:22:00,67.3,39.4,30.16,East,99,4.0,8.0,36,0.00,,,0.00,Wunderground v.1.15,2013-02-18 19:22:00,
2013-02-18 14:27:00,67.1,39.2,30.16,SSW,198,4.0,13.0,36,0.00,,,0.00,Wunderground v.1.15,2013-02-18 19:27:00,
2013-02-18 14:33:00,67.3,40.1,30.16,SE,143,3.0,7.0,37,0.00,,,0.00,Wunderground v.1.15,2013-02-18 19:33:00,
2013-02-18 14:38:00,67.4,40.2,30.16,East,90,3.0,7.0,37,0.00,,,0.00,Wunderground v.1.15,2013-02-18 19:38:00,
2013-02-18 14:44:00,67.6,40.4,30.16,SE,128,2.0,4.0,37,0.00,,,0.00,Wunderground v.1.15,2013-02-18 19:44:00,
2013-02-18 14:49:00,67.6,40.4,30.15,SE,141,3.0,10.0,37,0.00,,,0.00,Wunderground v.1.15,2013-02-18 19:49:00,
2013-02-18 14:54:00,67.4,40.2,30.15,SW,223,3.0,10.0,37,0.00,,,0.00,Wunderground v.1.15,2013-02-18 19:54:00,
2013-02-18 15:00:00,67.4,40.2,30.15,SE,124,2.0,3.0,37,0.00,,,0.00,Wunderground v.1.15,2013-02-18 20:00:00,
2013-02-18 15:05:00,67.6,40.4,30.15,East,100,2.0,5.0,37,0.00,,,0.00,Wunderground v.1.15,2013-02-18 20:05:00,
2013-02-18 15:10:00,67.8,40.6,30.15,SSE,151,2.0,2.0,37,0.00,,,0.00,Wunderground v.1.15,2013-02-18 20:10:00,
2013-02-18 15:15:00,67.9,40.7,30.15,SSE,151,2.0,11.0,37,0.00,,,0.00,Wunderground v.1.15,2013-02-18 20:15:00,
2013-02-18 15:21:00,67.9,40.7,30.15,East,82,2.0,2.0,37,0.00,,,0.00,Wunderground v.1.15,2013-02-18 20:21:00,
2013-02-18 15:26:00,67.9,40.7,30.15,SE,138,2.0,5.0,37,0.00,,,0.00,Wunderground v.1.15,2013-02-18 20:26:00,
2013-02-18 15:32:00,68.1,40.8,30.15,SSE,164,2.0,12.0,37,0.00,,,0.00,Wunderground v.1.15,2013-02-18 20:32:00,
2013-02-18 15:37:00,67.9,40.7,30.15,NE,40,3.0,12.0,37,0.00,,,0.00,Wunderground v.1.15,2013-02-18 20:37:00,
2013-02-18 15:42:00,67.9,40.7,30.15,ESE,116,3.0,5.0,37,0.00,,,0.00,Wunderground v.1.15,2013-02-18 20:42:00,
2013-02-18 15:48:00,67.8,40.6,30.15,SSE,147,3.0,5.0,37,0.00,,,0.00,Wunderground v.1.15,2013-02-18 20:48:00,
2013-02-18 15:53:00,67.8,40.6,30.15,SE,145,3.0,7.0,37,0.00,,,0.00,Wunderground v.1.15,2013-02-18 20:53:00,
2013-02-18 15:58:00,67.6,40.4,30.15,SE,137,4.0,10.0,37,0.00,,,0.00,Wunderground v.1.15,2013-02-18 20:58:00,
2013-02-18 16:04:00,67.6,40.4,30.15,SSE,164,4.0,5.0,37,0.00,,,0.00,Wunderground v.1.15,2013-02-18 21:04:00,
2013-02-18 16:09:00,67.6,41.1,30.15,East,92,2.0,2.0,38,0.00,,,0.00,Wunderground v.1.15,2013-02-18 21:09:00,
2013-02-18 16:14:00,67.8,41.3,30.15,SSE,151,1.0,2.0,38,0.00,,,0.00,Wunderground v.1.15,2013-02-18 21:14:00,
2013-02-18 16:19:00,67.9,41.3,30.15,ESE,113,2.0,3.0,38,0.00,,,0.00,Wunderground v.1.15,2013-02-18 21:19:00,
2013-02-18 16:25:00,68.1,41.5,30.15,SE,141,2.0,5.0,38,0.00,,,0.00,Wunderground v.1.15,2013-02-18 21:25:00,
2013-02-18 16:30:00,68.1,41.5,30.15,SSE,161,2.0,2.0,38,0.00,,,0.00,Wunderground v.1.15,2013-02-18 21:30:00,
2013-02-18 16:37:00,68.1,40.8,30.15,SE,134,3.0,6.0,37,0.00,,,0.00,Wunderground v.1.15,2013-02-18 21:37:00,
2013-02-18 16:42:00,68.1,41.5,30.15,SSE,155,1.0,2.0,38,0.00,,,0.00,Wunderground v.1.15,2013-02-18 21:42:00,
2013-02-18 16:48:00,67.9,40.7,30.14,SE,127,1.0,6.0,37,0.00,,,0.00,Wunderground v.1.15,2013-02-18 21:48:00,
2013-02-18 16:53:00,67.8,41.3,30.14,SSE,158,2.0,6.0,38,0.00,,,0.00,Wunderground v.1.15,2013-02-18 21:53:00,
2013-02-18 16:58:00,67.8,41.3,30.14,ESE,119,1.0,6.0,38,0.00,,,0.00,Wunderground v.1.15,2013-02-18 21:58:00,
2013-02-18 17:04:00,67.6,41.1,30.13,SE,126,2.0,4.0,38,0.00,,,0.00,Wunderground v.1.15,2013-02-18 22:04:00,
2013-02-18 17:10:00,67.3,40.8,30.13,SSE,158,1.0,1.0,38,0.00,,,0.00,Wunderground v.1.15,2013-02-18 22:10:00,
2013-02-18 17:15:00,67.1,40.6,30.13,SSE,157,1.0,5.0,38,0.00,,,0.00,Wunderground v.1.15,2013-02-18 22:15:00,
2013-02-18 17:20:00,67.1,40.6,30.13,SE,141,2.0,2.0,38,0.00,,,0.00,Wunderground v.1.15,2013-02-18 22:20:00,
2013-02-18 17:25:00,66.9,40.5,30.13,SE,131,1.0,6.0,38,0.00,,,0.00,Wunderground v.1.15,2013-02-18 22:25:00,
2013-02-18 17:31:00,66.8,40.4,30.13,SE,131,1.0,4.0,38,0.00,,,0.00,Wunderground v.1.15,2013-02-18 22:31:00,
2013-02-18 17:37:00,66.6,40.2,30.13,SE,126,0.0,4.0,38,0.00,,,0.00,Wunderground v.1.15,2013-02-18 22:37:00,
2013-02-18 17:42:00,66.4,40.7,30.13,ENE,71,0.0,0.0,39,0.00,,,0.00,Wunderground v.1.15,2013-02-18 22:42:00,
2013-02-18 17:47:00,66.3,40.6,30.13,SE,130,0.0,5.0,39,0.00,,,0.00,Wunderground v.1.15,2013-02-18 22:47:00,
2013-02-18 17:53:00,66.1,40.4,30.13,South,182,0.0,0.0,39,0.00,,,0.00,Wunderground v.1.15,2013-02-18 22:53:00,
2013-02-18 17:58:00,66.0,40.3,30.13,NE,40,0.0,0.0,39,0.00,,,0.00,Wunderground v.1.15,2013-02-18 22:58:00,
2013-02-18 18:04:00,65.8,40.8,30.13,ESE,103,0.0,0.0,40,0.00,,,0.00,Wunderground v.1.15,2013-02-18 23:04:00,
2013-02-18 18:09:00,65.6,40.6,30.13,SE,138,0.0,0.0,40,0.00,,,0.00,Wunderground v.1.15,2013-02-18 23:09:00,
2013-02-18 18:14:00,65.5,40.5,30.13,SE,145,0.0,0.0,40,0.00,,,0.00,Wunderground v.1.15,2013-02-18 23:14:00,
2013-02-18 18:19:00,65.2,40.3,30.13,SE,145,0.0,0.0,40,0.00,,,0.00,Wunderground v.1.15,2013-02-18 23:19:00,
2013-02-18 18:25:00,65.0,40.7,30.13,SE,145,0.0,0.0,41,0.00,,,0.00,Wunderground v.1.15,2013-02-18 23:25:00,
2013-02-18 18:30:00,64.8,41.2,30.13,SE,145,0.0,0.0,42,0.00,,,0.00,Wunderground v.1.15,2013-02-18 23:30:00,
2013-02-18 18:35:00,64.5,40.9,30.12,SE,145,0.0,0.0,42,0.00,,,0.00,Wunderground v.1.15,2013-02-18 23:35:00,
2013-02-18 18:41:00,64.2,41.2,30.12,North,10,0.0,0.0,43,0.00,,,0.00,Wunderground v.1.15,2013-02-18 23:41:00,
2013-02-18 18:46:00,63.5,41.2,30.12,North,3,0.0,0.0,44,0.00,,,0.00,Wunderground v.1.15,2013-02-18 23:46:00,
2013-02-18 18:51:00,63.1,41.4,30.12,North,3,0.0,0.0,45,0.00,,,0.00,Wunderground v.1.15,2013-02-18 23:51:00,
2013-02-18 18:57:00,62.3,41.2,30.12,North,3,0.0,0.0,46,0.00,,,0.00,Wunderground v.1.15,2013-02-18 23:57:00,
2013-02-18 19:02:00,61.8,41.3,30.12,North,3,0.0,0.0,47,0.00,,,0.00,Wunderground v.1.15,2013-02-19 00:02:00,
2013-02-18 19:07:00,61.3,40.9,30.12,North,3,0.0,0.0,47,0.00,,,0.00,Wunderground v.1.15,2013-02-19 00:07:00,
2013-02-18 19:12:00,60.9,41.1,30.12,North,0,0.0,0.0,48,0.00,,,0.00,Wunderground v.1.15,2013-02-19 00:12:00,
2013-02-18 19:18:00,60.4,41.1,30.13,North,0,0.0,0.0,49,0.00,,,0.00,Wunderground v.1.15,2013-02-19 00:18:00,
2013-02-18 19:23:00,59.9,41.2,30.13,NNW,346,0.0,0.0,50,0.00,,,0.00,Wunderground v.1.15,2013-02-19 00:23:00,
2013-02-18 19:28:00,59.6,40.9,30.13,NNW,343,0.0,0.0,50,0.00,,,0.00,Wunderground v.1.15,2013-02-19 00:28:00,
2013-02-18 19:34:00,59.2,41.1,30.13,North,0,0.0,0.0,51,0.00,,,0.00,Wunderground v.1.15,2013-02-19 00:34:00,
2013-02-18 19:39:00,58.9,40.8,30.13,North,350,0.0,0.0,51,0.00,,,0.00,Wunderground v.1.15,2013-02-19 00:39:00,
2013-02-18 19:45:00,58.4,40.8,30.13,NNW,342,0.0,0.0,52,0.00,,,0.00,Wunderground v.1.15,2013-02-19 00:45:00,
2013-02-18 19:50:00,58.1,41.0,30.13,North,0,0.0,0.0,53,0.00,,,0.00,Wunderground v.1.15,2013-02-19 00:50:00,
2013-02-18 19:56:00,57.6,41.1,30.13,North,0,0.0,0.0,54,0.00,,,0.00,Wunderground v.1.15,2013-02-19 00:56:00,
2013-02-18 20:01:00,57.3,41.3,30.13,North,0,0.0,0.0,55,0.00,,,0.00,Wunderground v.1.15,2013-02-19 01:01:00,
2013-02-18 20:06:00,57.0,41.0,30.13,North,0,0.0,0.0,55,0.00,,,0.00,Wunderground v.1.15,2013-02-19 01:06:00,
2013-02-18 20:12:00,56.9,41.4,30.13,North,0,0.0,0.0,56,0.00,,,0.00,Wunderground v.1.15,2013-02-19 01:12:00,
2013-02-18 20:18:00,56.6,41.1,30.13,North,0,0.0,0.0,56,0.00,,,0.00,Wunderground v.1.15,2013-02-19 01:18:00,
2013-02-18 20:23:00,56.5,41.4,30.13,North,352,0.0,0.0,57,0.00,,,0.00,Wunderground v.1.15,2013-02-19 01:23:00,
2013-02-18 20:28:00,56.3,41.3,30.13,NNW,347,0.0,0.0,57,0.00,,,0.00,Wunderground v.1.15,2013-02-19 01:28:00,
2013-02-18 20:34:00,56.2,41.6,30.14,NNW,337,0.0,0.0,58,0.00,,,0.00,Wunderground v.1.15,2013-02-19 01:34:00,
2013-02-18 20:39:00,56.0,41.4,30.14,North,0,0.0,0.0,58,0.00,,,0.00,Wunderground v.1.15,2013-02-19 01:39:00,
2013-02-18 20:44:00,55.9,41.8,30.14,North,356,0.0,0.0,59,0.00,,,0.00,Wunderground v.1.15,2013-02-19 01:44:00,
2013-02-18 20:49:00,55.7,41.6,30.13,NNW,339,0.0,0.0,59,0.00,,,0.00,Wunderground v.1.15,2013-02-19 01:49:00,
2013-02-18 20:55:00,55.6,41.5,30.13,NNW,346,0.0,0.0,59,0.00,,,0.00,Wunderground v.1.15,2013-02-19 01:55:00,
2013-02-18 21:00:00,55.4,41.3,30.13,NNW,337,0.0,0.0,59,0.00,,,0.00,Wunderground v.1.15,2013-02-19 02:00:00,
2013-02-18 21:06:00,55.3,41.6,30.13,NNW,342,0.0,0.0,60,0.00,,,0.00,Wunderground v.1.15,2013-02-19 02:06:00,
2013-02-18 21:12:00,55.0,41.4,30.13,NNW,337,0.0,0.0,60,0.00,,,0.00,Wunderground v.1.15,2013-02-19 02:12:00,
2013-02-18 21:17:00,54.8,41.6,30.12,North,0,0.0,0.0,61,0.00,,,0.00,Wunderground v.1.15,2013-02-19 02:17:00,
2013-02-18 21:22:00,54.7,41.5,30.12,NNW,339,0.0,0.0,61,0.00,,,0.00,Wunderground v.1.15,2013-02-19 02:22:00,
2013-02-18 21:28:00,54.4,41.2,30.12,NNW,340,0.0,0.0,61,0.00,,,0.00,Wunderground v.1.15,2013-02-19 02:28:00,
2013-02-18 21:34:00,54.1,40.9,30.12,North,0,0.0,0.0,61,0.00,,,0.00,Wunderground v.1.15,2013-02-19 02:34:00,
2013-02-18 21:40:00,53.8,41.1,30.12,North,350,0.0,0.0,62,0.00,,,0.00,Wunderground v.1.15,2013-02-19 02:40:00,
2013-02-18 21:45:00,53.5,40.8,30.12,North,353,0.0,0.0,62,0.00,,,0.00,Wunderground v.1.15,2013-02-19 02:45:00,
2013-02-18 21:51:00,53.2,40.9,30.12,NNW,339,0.0,0.0,63,0.00,,,0.00,Wunderground v.1.15,2013-02-19 02:51:00,
2013-02-18 21:56:00,52.9,40.6,30.12,North,0,0.0,0.0,63,0.00,,,0.00,Wunderground v.1.15,2013-02-19 02:56:00,
2013-02-18 22:02:00,52.6,40.4,30.12,NNW,333,0.0,0.0,63,0.00,,,0.00,Wunderground v.1.15,2013-02-19 03:02:00,
2013-02-18 22:09:00,52.3,40.5,30.12,North,349,0.0,0.0,64,0.00,,,0.00,Wunderground v.1.15,2013-02-19 03:09:00,
2013-02-18 22:14:00,52.2,40.4,30.12,North,0,0.0,0.0,64,0.00,,,0.00,Wunderground v.1.15,2013-02-19 03:14:00,
2013-02-18 22:20:00,51.9,40.1,30.11,NNW,343,0.0,0.0,64,0.00,,,0.00,Wunderground v.1.15,2013-02-19 03:20:00,
2013-02-18 22:26:00,51.7,40.3,30.11,NNW,336,0.0,0.0,65,0.00,,,0.00,Wunderground v.1.15,2013-02-19 03:26:00,
2013-02-18 22:31:00,51.7,40.7,30.11,North,0,0.0,0.0,66,0.00,,,0.00,Wunderground v.1.15,2013-02-19 03:31:00,
2013-02-18 22:37:00,51.9,41.3,30.11,NNW,337,0.0,0.0,67,0.00,,,0.00,Wunderground v.1.15,2013-02-19 03:37:00,
2013-02-18 22:42:00,52.2,41.6,30.11,North,0,0.0,0.0,67,0.00,,,0.00,Wunderground v.1.15,2013-02-19 03:42:00,
2013-02-18 22:48:00,52.2,41.6,30.11,NNW,340,0.0,0.0,67,0.00,,,0.00,Wunderground v.1.15,2013-02-19 03:48:00,
2013-02-18 22:53:00,52.3,41.7,30.11,NNW,333,0.0,0.0,67,0.00,,,0.00,Wunderground v.1.15,2013-02-19 03:53:00,
2013-02-18 22:59:00,52.3,42.0,30.11,East,83,0.0,0.0,68,0.00,,,0.00,Wunderground v.1.15,2013-02-19 03:59:00,
2013-02-18 23:05:00,52.5,42.2,30.10,East,82,0.0,0.0,68,0.00,,,0.00,Wunderground v.1.15,2013-02-19 04:05:00,
2013-02-18 23:11:00,52.6,42.3,30.10,East,82,0.0,0.0,68,0.00,,,0.00,Wunderground v.1.15,2013-02-19 04:11:00,
2013-02-18 23:16:00,52.8,42.9,30.10,East,83,0.0,0.0,69,0.00,,,0.00,Wunderground v.1.15,2013-02-19 04:16:00,
2013-02-18 23:22:00,52.9,43.0,30.10,East,83,0.0,0.0,69,0.00,,,0.00,Wunderground v.1.15,2013-02-19 04:22:00,
2013-02-18 23:27:00,53.1,43.2,30.10,East,83,0.0,0.0,69,0.00,,,0.00,Wunderground v.1.15,2013-02-19 04:27:00,
2013-02-18 23:33:00,53.2,43.3,30.10,East,82,0.0,0.0,69,0.00,,,0.00,Wunderground v.1.15,2013-02-19 04:33:00,
2013-02-18 23:39:00,53.3,43.8,30.10,East,83,0.0,0.0,70,0.00,,,0.00,Wunderground v.1.15,2013-02-19 04:39:00,
2013-02-18 23:44:00,53.5,44.0,30.10,East,83,0.0,0.0,70,0.00,,,0.00,Wunderground v.1.15,2013-02-19 04:44:00,
2013-02-18 23:50:00,53.6,44.0,30.11,ENE,66,0.0,0.0,70,0.00,,,0.00,Wunderground v.1.15,2013-02-19 04:50:00,
2013-02-18 23:56:00,53.6,44.0,30.11,ENE,66,0.0,0.0,70,0.00,,,0.00,Wunderground v.1.15,2013-02-19 04:56:00,